Estación de Hornitos

Ultimos registro cada 15 minutos 48
Estación Fecha / Hora Temperatura Humedad Lluvia Velocidad Dirección Radiación Presion
48 Hornitos 07-05-2026 12:00 24,7 15 0 0,4 337 139 1013,7
47 Hornitos 07-05-2026 11:45 24,2 18 0 0,4 285 183 1014,3
46 Hornitos 07-05-2026 11:30 23,6 19 0 0 320 371 1014,3
45 Hornitos 07-05-2026 11:15 22,4 23 0 0 27 559 1014,9
44 Hornitos 07-05-2026 11:00 22,4 23 0 0 27 559 1014,9
43 Hornitos 07-05-2026 10:45 21,7 24 0 0,9 75 536 1014,8
42 Hornitos 07-05-2026 10:30 20,9 26 0 0,4 66 508 1015,2
41 Hornitos 07-05-2026 10:15 20,1 28 0 0,4 4 476 1015,4
40 Hornitos 07-05-2026 10:00 19,4 32 0 0,9 353 439 1015,9
39 Hornitos 07-05-2026 09:45 18,7 36 0 0,9 324 404 1015,9
38 Hornitos 07-05-2026 09:30 17,4 39 0 0 71 366 1016,1
37 Hornitos 07-05-2026 09:15 16,3 43 0 0,4 72 327 1016,1
36 Hornitos 07-05-2026 09:00 14,6 51 0 0,4 121 281 1016,2
35 Hornitos 07-05-2026 08:45 12,8 58 0 0,4 73 237 1016
34 Hornitos 07-05-2026 08:30 9,4 73 0 0 356 202 1015,7
33 Hornitos 07-05-2026 08:15 6,8 74 0 0 355 155 1015,7
32 Hornitos 07-05-2026 08:00 5,9 72 0 0 237 16 1015,6
31 Hornitos 07-05-2026 07:45 5,7 72 0 0 237 12 1015,7
30 Hornitos 07-05-2026 07:30 5,6 72 0 0 237 9 1015,6
29 Hornitos 07-05-2026 07:15 5,4 72 0 0 237 5 1015,5
28 Hornitos 07-05-2026 07:00 5,4 71 0 0 240 0 1015,4
27 Hornitos 07-05-2026 06:45 5,6 72 0 0 240 0 1015,2
26 Hornitos 07-05-2026 06:30 5,5 71 0 0 242 0 1014,9
25 Hornitos 07-05-2026 06:15 5,7 72 0 0 242 0 1014,8
24 Hornitos 07-05-2026 06:00 5,7 71 0 0 241 0 1014,8
23 Hornitos 07-05-2026 05:45 5,8 71 0 0 242 0 1014,7
22 Hornitos 07-05-2026 05:30 6 71 0 0 242 0 1014,7
21 Hornitos 07-05-2026 05:15 6 71 0 0 242 0 1014,7
20 Hornitos 07-05-2026 05:00 6,2 71 0 0 242 0 1014,8
19 Hornitos 07-05-2026 04:45 6,4 71 0 0 242 0 1014,6
18 Hornitos 07-05-2026 04:30 6,7 71 0 0 242 0 1014,6
17 Hornitos 07-05-2026 04:15 6,6 70 0 0 242 0 1014,5
16 Hornitos 07-05-2026 04:00 6,8 70 0 0 242 0 1014,5
15 Hornitos 07-05-2026 03:45 6,7 70 0 0 242 0 1014,3
14 Hornitos 07-05-2026 03:30 6,9 70 0 0 242 0 1014,4
13 Hornitos 07-05-2026 03:15 6,8 70 0 0,4 242 0 1014,4
12 Hornitos 07-05-2026 03:00 7,1 70 0 0 243 0 1014,4
11 Hornitos 07-05-2026 02:45 7,2 69 0 0 243 0 1014,5
10 Hornitos 07-05-2026 02:30 7,3 70 0 0 243 0 1014,5
9 Hornitos 07-05-2026 02:15 7,5 69 0 0 243 0 1014,4
8 Hornitos 07-05-2026 02:00 7,9 70 0 0 243 0 1014,4
7 Hornitos 07-05-2026 01:45 7,9 70 0 0 243 0 1014,4
6 Hornitos 07-05-2026 01:30 7,7 68 0 0 234 0 1014,6
5 Hornitos 07-05-2026 01:00 7,8 69 0 0 234 0 1014,5
4 Hornitos 07-05-2026 00:45 7,9 68 0 0 235 0 1014,5
3 Hornitos 07-05-2026 00:30 8,2 67 0 0 235 0 1014,6
2 Hornitos 07-05-2026 00:15 8,8 67 0 0 235 0 1014,8
1 Hornitos 07-05-2026 00:00 9,1 69 0 0 235 0 1014,8